This is the latest recevied weather packets stored in our database for station/object E7HQ-1. If no packets are shown the sender has not sent any weather packets the latest 10 day(s).
| Time | Temp. | Humidity | Pressure | Rain* | Wind** | Luminosity | Snow |
|---|---|---|---|---|---|---|---|
| 1778182253 | 11.67° C | 68% | 1027.4 hPa | - | - | - | - |
| 1778181353 | 11.67° C | 70% | 1027.2 hPa | - | - | - | - |
| 1778180452 | 11.67° C | 75% | 1027.1 hPa | - | - | - | - |
| 1778179552 | 11.67° C | 74% | 1026.9 hPa | - | - | - | - |
| 1778178652 | 11.67° C | 72% | 1026.6 hPa | - | - | - | - |
| 1778177752 | 11.67° C | 71% | 1026.4 hPa | - | - | - | - |
| 1778176851 | 11.67° C | 68% | 1026.4 hPa | - | - | - | - |
| 1778175951 | 11.67° C | 66% | 1026.4 hPa | - | - | - | - |
| 1778175051 | 11.67° C | 67% | 1026.3 hPa | - | - | - | - |
| 1778174151 | 11.67° C | 68% | 1026.3 hPa | - | - | - | - |
| 1778173251 | 11.67° C | 69% | 1026.3 hPa | - | - | - | - |
| 1778172350 | 11.67° C | 68% | 1026.5 hPa | - | - | - | - |
| 1778171450 | 11.67° C | 73% | 1026.6 hPa | - | - | - | - |
| 1778170550 | 11.67° C | 77% | 1026.7 hPa | - | - | - | - |
| 1778169650 | 11.67° C | 81% | 1026.5 hPa | - | - | - | - |
| 1778168750 | 11.67° C | 82% | 1026.4 hPa | - | - | - | - |
| 1778167849 | 11.67° C | 82% | 1026.3 hPa | - | - | - | - |
| 1778166949 | 12.22° C | 83% | 1026.5 hPa | - | - | - | - |
| 1778166049 | 11.67° C | 85% | 1026.4 hPa | - | - | - | - |
| 1778165148 | 11.67° C | 85% | 1026.4 hPa | - | - | - | - |
| 1778088853 | 16.11° C | 49% | 1024.1 hPa | - | - | - | - |
| 1778087927 | 16.67° C | 47% | 1023.7 hPa | - | - | - | - |
| 1778087008 | 16.67° C | 46% | 1023.6 hPa | - | - | - | - |
| 1778086089 | 17.78° C | 44% | 1023.5 hPa | - | - | - | - |
| 1778085171 | 17.78° C | 44% | 1023.6 hPa | - | - | - | - |
* Rain since midnight (hover to see other rain measurements)
** Current wind speed in m/s (hover to see current wind gust speed)